Scholes International At Galveston Airport
KGLS : rendu visible

Aérodrome :











RETROUVEZ-NOUS SUR...

 
LOGIN :

S'inscrire | Disclaimer

   EN    FR    IT 

 









Légende :    VFR   VFR Marginal   IFR   IFR Intensif   IFR Très Intensif
Visi : 
Plafond : 
>= 8 km
>= 3000ft
5 à 8 km
1000 à 3000 ft
1500m à 5 km
500 à 1000 ft
800 à 1500m
200 à 500 ft
< 800m
< 200 ft
Symboles :   Orages  Brouillard  Fortes neiges  Fortes précipitations  Vent > 20 kt






- Altitude de l'aérodrome : 6 ft
- Code IATA : GLS


KGLS - Scholes International At Galveston

DERNIER METAR :
  • 190452Z AUTO 03013KT 10SM CLR 26/17 A2997 RMK AO2 SLP149 T02610167

METARs EXPIRÉS :
  • 190352Z AUTO 03012KT 10SM CLR 27/16 A2998 RMK AO2 SLP152 T02670156
  • 190252Z AUTO 03014KT 10SM CLR 27/15 A2997 RMK AO2 SLP148 T02670150 53014

TAF KGLS
Valide du 19 à 00h jusqu'au 20 à 00h UTC


182323Z 1900/1924 04010G20KT P6SM FEW050 BKN250
FM190600 05013G23KT P6SM BKN250
FM191800 03014G24KT P6SM FEW045 BKN250
FIR KZHU / Amérique du Nord



MET'MAP, la Météo Aéronautique d'un coup d'oeil ! - Copyright ORBIFLY Décembre 2007 - Disclaimer

ORBIFLY MET'MAP TEAM :

Programmation & Développement : Alexandra Zaïnal
Sur une idée originale de : Baudouin d'Aumeries
Assistance à la programmation : Marc-Olivier Méhu
Soutien technique & logistique : Manuel Goepfert

Contact : metmap@orbifly.com




SOURCES & CREDITS :

   NOAA       Earth
Advisory